YO2LDK-13 Weather Reports


Display with metric or nautical units.
time (UTC)temp
F
wind
direction
speed
MPH
gust
MPH
rain 1hr
in
rain 24hr
in
rain mn
in
humidity
%
barometer
mb
20260906014520 64 12 2.0 2.0 0.00 0.00 0.00 70 1012.2
20260906014022 64 18 1.0 1.0 0.00 0.00 0.00 69 1012.2
20260906013519 64 24 1.0 1.0 0.00 0.00 0.00 70 1012.2
20260906013019 63 24 1.0 1.0 0.00 0.00 0.00 70 1012.2
20260906012519 63 306 1.0 1.0 0.00 0.00 0.00 71 1012.2
20260906012020 62 288 2.0 2.0 0.00 0.00 0.00 71 1012.2
20260906011519 62 300 0.0 0.0 0.00 0.00 0.00 72 1012.2
20260906011018 62 300 0.0 0.0 0.00 0.00 0.00 73 1012.2
20260906010519 62 294 1.0 1.0 0.00 0.00 0.00 72 1011.9
20260906010019 62 294 0.0 0.0 0.00 0.00 0.00 72 1012.2
20260906005519 63 294 0.0 0.0 0.00 0.00 0.00 71 1011.9
20260906005019 63 299 0.0 0.0 0.00 0.00 0.00 71 1012.2
20260906004519 62 282 0.0 0.0 0.00 0.00 0.00 71 1011.9
20260906004019 62 282 0.0 0.0 0.00 0.00 0.00 71 1012.2
20260906003519 62 282 0.0 0.0 0.00 0.00 0.00 72 1011.9
20260906003019 62 282 0.0 0.0 0.00 0.00 0.00 72 1012.2
20260906002519 61 324 0.0 0.0 0.00 0.00 0.00 72 1012.2
20260906002019 61 330 0.0 0.0 0.00 0.00 0.00 74 1012.2
20260906001521 61 330 0.0 0.0 0.00 0.00 0.00 74 1012.2
20260906001019 61 336 0.0 0.0 0.00 0.00 0.00 74 1012.2
20260906000519 61 336 0.0 0.0 0.00 0.00 0.00 74 1011.9
20260906000019 61 342 0.0 0.0 0.00 0.00 0.00 74 1012.2
20260905235519 61 342 0.0 0.0 0.00 0.00 0.00 75 1011.9
20260905235019 61 342 0.0 0.0 0.00 0.00 0.00 75 1011.9
20260905234519 61 342 0.0 0.0 0.00 0.00 0.00 74 1011.9
20260905234020 61 342 0.0 0.0 0.00 0.00 0.00 74 1011.9
20260905233519 61 342 0.0 0.0 0.00 0.00 0.00 74 1011.5
20260905233019 61 342 0.0 0.0 0.00 0.00 0.00 74 1011.5
20260905232519 62 342 0.0 0.0 0.00 0.00 0.00 74 1011.5
20260905232021 62 342 0.0 0.0 0.00 0.00 0.00 74 1011.5
20260905231519 62 342 0.0 0.0 0.00 0.00 0.00 73 1011.9
20260905231019 62 342 1.0 1.0 0.00 0.00 0.00 73 1011.9
20260905230519 63 342 0.0 0.0 0.00 0.00 0.00 73 1011.9
20260905230019 62 98 0.0 0.0 0.00 0.00 0.00 73 1011.5
20260905225519 63 102 0.0 0.0 0.00 0.00 0.00 73 1011.5
20260905225019 63 102 0.0 0.0 0.00 0.00 0.00 73 1011.5
20260905224519 63 102 0.0 0.0 0.00 0.00 0.00 73 1011.5
20260905224019 63 102 0.0 0.0 0.00 0.00 0.00 72 1011.2
20260905223519 64 102 0.0 0.0 0.00 0.00 0.00 71 1011.2
20260905223019 64 102 0.0 0.0 0.00 0.00 0.00 71 1011.5
20260905222520 64 102 0.0 0.0 0.00 0.00 0.00 71 1011.2
20260905222019 65 102 0.0 0.0 0.00 0.00 0.00 70 1011.2
20260905221519 65 102 0.0 0.0 0.00 0.00 0.00 69 1011.2
20260905221019 65 103 0.0 0.0 0.00 0.00 0.00 69 1011.5
20260905220519 65 103 0.0 0.0 0.00 0.00 0.00 68 1011.5
20260905220021 66 103 0.0 0.0 0.00 0.00 0.00 67 1011.5
20260905215519 66 103 0.0 0.0 0.00 0.00 0.00 66 1011.2
20260905215019 67 103 0.0 0.0 0.00 0.00 0.00 66 1011.2
20260905214519 67 103 0.0 0.0 0.00 0.00 0.00 65 1011.2
20260905214021 67 103 0.0 0.0 0.00 0.00 0.00 64 1011.2
20260905213519 67 103 0.0 0.0 0.00 0.00 0.00 64 1011.2
20260905213019 67 103 0.0 0.0 0.00 0.00 0.00 63 1010.8
20260905212520 67 103 0.0 0.0 0.00 0.00 0.00 63 1011.2
20260905212020 67 103 0.0 0.0 0.00 0.00 0.00 63 1010.8
20260905211519 67 103 0.0 0.0 0.00 0.00 0.00 63 1010.8
20260905211019 67 103 0.0 0.0 0.00 0.00 0.00 63 1010.5
20260905210519 67 103 0.0 0.0 0.00 0.00 0.00 63 1010.5
20260905210019 67 103 0.0 0.0 0.00 0.00 0.00 62 1010.5
20260905205519 67 103 0.0 0.0 0.00 0.00 0.00 62 1010.5
20260905205019 68 103 0.0 0.0 0.00 0.00 0.00 61 1010.5
20260905204519 68 108 0.0 0.0 0.00 0.00 0.00 61 1010.5
20260905204019 68 108 0.0 0.0 0.00 0.00 0.00 60 1010.5
20260905203519 69 108 0.0 0.0 0.00 0.00 0.00 58 1010.5
20260905203019 69 104 0.0 0.0 0.00 0.00 0.00 57 1010.5
20260905202519 70 104 0.0 0.0 0.00 0.00 0.00 56 1010.5
20260905202019 70 108 0.0 0.0 0.00 0.00 0.00 55 1010.2
20260905201520 71 42 2.0 2.0 0.00 0.00 0.00 54 1010.2
20260905201044 71 64 1.0 1.0 0.00 0.00 0.00 53 1010.5
20260905200519 71 102 0.0 0.0 0.00 0.00 0.00 52 1010.2
20260905200019 71 72 0.0 0.0 0.00 0.00 0.00 51 1009.8
20260905195519 72 72 2.0 2.0 0.00 0.00 0.00 49 1009.8
20260905195019 72 112 0.0 0.0 0.00 0.00 0.00 46 1009.5
20260905194520 72 52 0.0 0.0 0.00 0.00 0.00 46 1009.5
20260905194021 72 52 0.0 0.0 0.00 0.00 0.00 46 1009.5
20260905193519 72 52 0.0 0.0 0.00 0.00 0.00 46 1009.5
20260905193019 72 48 0.0 0.0 0.00 0.00 0.00 46 1009.5
20260905192521 72 52 0.0 0.0 0.00 0.00 0.00 46 1009.5
20260905192019 72 52 0.0 0.0 0.00 0.00 0.00 46 1009.1
20260905191520 72 48 0.0 0.0 0.00 0.00 0.00 45 1009.1
20260905191019 73 48 0.0 0.0 0.00 0.00 0.00 44 1009.5
20260905190519 73 48 0.0 0.0 0.00 0.00 0.00 43 1009.5
20260905190019 73 42 0.0 0.0 0.00 0.00 0.00 43 1009.5
20260905185519 73 42 0.0 0.0 0.00 0.00 0.00 42 1009.5
20260905185019 73 42 0.0 0.0 0.00 0.00 0.00 42 1009.5
20260905184519 73 42 0.0 0.0 0.00 0.00 0.00 41 1009.5
20260905184020 74 42 0.0 0.0 0.00 0.00 0.00 40 1009.5
20260905183519 74 48 1.0 1.0 0.00 0.00 0.00 40 1009.1
20260905183019 74 70 0.0 0.0 0.00 0.00 0.00 39 1009.1
20260905182519 74 71 0.0 0.0 0.00 0.00 0.00 39 1009.1
20260905182019 75 52 2.0 2.0 0.00 0.00 0.00 38 1009.1
20260905181519 75 74 0.0 0.0 0.00 0.00 0.00 38 1008.8
20260905181019 75 67 0.0 0.0 0.00 0.00 0.00 37 1008.8
20260905180519 75 64 0.0 0.0 0.00 0.00 0.00 38 1008.8
20260905180020 75 60 3.0 4.0 0.00 0.00 0.00 37 1008.5
20260905175519 76 98 0.0 0.0 0.00 0.00 0.00 37 1008.5
20260905175019 76 90 0.0 0.0 0.00 0.00 0.00 37 1008.5
20260905174519 76 24 6.0 6.0 0.00 0.00 0.00 39 1008.1
20260905174019 77 78 0.0 0.0 0.00 0.00 0.00 41 1008.5
20260905173519 77 73 0.0 0.0 0.00 0.00 0.00 40 1008.1
20260905173019 78 62 0.0 0.0 0.00 0.00 0.00 40 1008.1
20260905172519 78 58 0.0 0.0 0.00 0.00 0.00 40 1008.1
20260905172019 78 12 2.0 2.0 0.00 0.00 0.00 39 1008.1
20260905171519 79 67 2.0 2.0 0.00 0.00 0.00 39 1007.8
20260905171019 79 342 2.0 2.0 0.00 0.00 0.00 39 1007.8
20260905170520 80 72 3.0 3.0 0.00 0.00 0.00 37 1007.8
20260905170019 81 78 1.0 1.0 0.00 0.00 0.00 36 1007.5
20260905165519 81 66 2.0 2.0 0.00 0.00 0.00 36 1007.8
20260905165019 81 73 2.0 2.0 0.00 0.00 0.00 37 1007.1
20260905164520 81 330 1.0 1.0 0.00 0.00 0.00 37 1007.5
20260905164019 81 240 2.0 2.0 0.00 0.00 0.00 36 1006.8
20260905163519 82 67 3.0 3.0 0.00 0.00 0.00 36 1007.5
20260905163019 82 68 2.0 2.0 0.00 0.00 0.00 35 1007.1
20260905162519 82 66 2.0 2.0 0.00 0.00 0.00 35 1007.1
20260905162019 83 321 2.0 2.0 0.00 0.00 0.00 35 1007.1
20260905161519 83 54 2.0 2.0 0.00 0.00 0.00 34 1007.1
20260905161019 83 58 2.0 2.0 0.00 0.00 0.00 34 1007.5
20260905160521 83 80 3.0 3.0 0.00 0.00 0.00 34 1007.5
20260905160019 83 46 3.0 3.0 0.00 0.00 0.00 34 1007.1
20260905155519 84 77 3.0 3.0 0.00 0.00 0.00 34 1007.1
20260905155019 84 42 2.0 2.0 0.00 0.00 0.00 33 1007.1
20260905154520 84 70 2.0 2.0 0.00 0.00 0.00 33 1007.1
20260905154019 85 84 0.0 0.0 0.00 0.00 0.00 33 1006.8
20260905153519 85 67 3.0 3.0 0.00 0.00 0.00 31 1006.8
20260905153021 85 55 3.0 3.0 0.00 0.00 0.00 32 1006.8
20260905152519 85 318 2.0 2.0 0.00 0.00 0.00 31 1006.8
20260905152019 86 136 7.0 7.0 0.00 0.00 0.00 31 1006.4
20260905151521 86 72 2.0 2.0 0.00 0.00 0.00 30 1006.8
20260905151019 87 81 0.0 0.0 0.00 0.00 0.00 30 1006.4
20260905150519 86 66 2.0 2.0 0.00 0.00 0.00 31 1006.8
20260905150019 86 61 2.0 2.0 0.00 0.00 0.00 31 1006.4
20260905145519 85 36 2.0 2.0 0.00 0.00 0.00 32 1006.8
20260905145019 85 72 0.0 0.0 0.00 0.00 0.00 33 1006.4
20260905144521 86 89 2.0 2.0 0.00 0.00 0.00 32 1006.1
20260905144019 86 82 5.0 5.0 0.00 0.00 0.00 31 1006.1
20260905143519 86 60 4.0 4.0 0.00 0.00 0.00 31 1006.1
20260905143020 87 71 3.0 3.0 0.00 0.00 0.00 30 1006.1
20260905142520 88 66 3.0 3.0 0.00 0.00 0.00 31 1006.1
20260905142019 87 83 3.0 3.0 0.00 0.00 0.00 32 1005.8
20260905141519 87 67 2.0 2.0 0.00 0.00 0.00 33 1005.8
20260905141019 88 360 4.0 4.0 0.00 0.00 0.00 33 1005.8
20260905140521 88 62 3.0 3.0 0.00 0.00 0.00 35 1005.8
20260905140019 88 108 2.0 2.0 0.00 0.00 0.00 34 1005.8
20260905135519 87 67 3.0 3.0 0.00 0.00 0.00 36 1006.1
20260905135019 87 79 4.0 4.0 0.00 0.00 0.00 36 1006.1
20260905134520 86 74 3.0 3.0 0.00 0.00 0.00 36 1005.8
20260905134019 86 41 4.0 5.0 0.00 0.00 0.00 37 1005.8
20260905133519 86 68 2.0 2.0 0.00 0.00 0.00 37 1005.8
20260905133019 86 72 4.0 4.0 0.00 0.00 0.00 38 1005.4
20260905132519 88 68 3.0 4.0 0.00 0.00 0.00 37 1005.8
20260905132019 88 67 3.0 4.0 0.00 0.00 0.00 38 1005.4
20260905131519 88 62 4.0 4.0 0.00 0.00 0.00 38 1005.4
20260905131019 88 70 5.0 5.0 0.00 0.00 0.00 38 1005.1
20260905130519 88 114 3.0 3.0 0.00 0.00 0.00 38 1005.1
20260905130019 89 360 4.0 4.0 0.00 0.00 0.00 37 1005.1
20260905125522 89 72 6.0 6.0 0.00 0.00 0.00 37 1005.1
20260905125019 89 78 4.0 4.0 0.00 0.00 0.00 37 1005.1
20260905124520 89 144 6.0 6.0 0.00 0.00 0.00 37 1005.1
20260905124019 89 49 5.0 6.0 0.00 0.00 0.00 37 1005.1
20260905123519 90 132 4.0 4.0 0.00 0.00 0.00 36 1004.7
20260905123019 92 60 2.0 2.0 0.00 0.00 0.00 32 1004.4
20260905122519 93 59 3.0 3.0 0.00 0.00 0.00 31 1004.4
20260905122020 93 70 2.0 2.0 0.00 0.00 0.00 31 1004.4
20260905121519 92 78 0.0 0.0 0.00 0.00 0.00 30 1004.7
20260905121019 94 324 2.0 2.0 0.00 0.00 0.00 29 1004.7
20260905120520 93 260 0.0 0.0 0.00 0.00 0.00 31 1004.7
20260905120020 94 64 2.0 2.0 0.00 0.00 0.00 31 1005.1
20260905115520 95 312 3.0 4.0 0.00 0.00 0.00 30 1005.1
20260905115019 94 282 3.0 4.0 0.00 0.00 0.00 31 1005.1
20260905114519 94 339 2.0 2.0 0.00 0.00 0.00 31 1005.1
20260905114019 94 287 4.0 4.0 0.00 0.00 0.00 31 1004.7
20260905113519 94 275 4.0 4.0 0.00 0.00 0.00 31 1005.1
20260905113022 94 335 3.0 3.0 0.00 0.00 0.00 31 1005.1
20260905112519 94 18 3.0 4.0 0.00 0.00 0.00 31 1005.1
20260905112019 94 306 2.0 2.0 0.00 0.00 0.00 31 1005.1
20260905111519 94 18 4.0 4.0 0.00 0.00 0.00 30 1005.1
20260905111019 94 279 2.0 2.0 0.00 0.00 0.00 32 1005.4
20260905110519 94 306 2.0 2.0 0.00 0.00 0.00 31 1005.1
20260905110019 94 313 2.0 2.0 0.00 0.00 0.00 31 1005.1
20260905105521 94 324 3.0 3.0 0.00 0.00 0.00 31 1005.1
20260905105019 93 324 2.0 2.0 0.00 0.00 0.00 31 1005.1
20260905104519 93 294 4.0 4.0 0.00 0.00 0.00 31 1005.1
20260905104020 94 360 4.0 4.0 0.00 0.00 0.00 31 1005.1
20260905103520 93 281 4.0 4.0 0.00 0.00 0.00 31 1005.1
20260905103020 93 272 4.0 4.0 0.00 0.00 0.00 32 1005.4
20260905102520 93 265 5.0 5.0 0.00 0.00 0.00 32 1005.1
20260905102019 94 318 4.0 5.0 0.00 0.00 0.00 32 1005.4
20260905101519 93 265 2.0 2.0 0.00 0.00 0.00 32 1005.4
20260905101023 92 287 2.0 2.0 0.00 0.00 0.00 33 1005.4
20260905100520 92 268 3.0 3.0 0.00 0.00 0.00 33 1005.4
20260905100020 92 26 2.0 2.0 0.00 0.00 0.00 31 1005.4
20260905095519 91 318 3.0 4.0 0.00 0.00 0.00 33 1005.4
20260905095019 91 311 2.0 2.0 0.00 0.00 0.00 32 1005.8
20260905094519 91 67 3.0 3.0 0.00 0.00 0.00 32 1005.4
20260905094019 91 337 0.0 0.0 0.00 0.00 0.00 33 1005.4
20260905093519 91 1 2.0 2.0 0.00 0.00 0.00 34 1005.8
20260905093019 91 282 2.0 2.0 0.00 0.00 0.00 34 1005.4
20260905092519 90 2 2.0 2.0 0.00 0.00 0.00 35 1005.4
20260905092019 90 3 2.0 2.0 0.00 0.00 0.00 34 1005.4
20260905091519 89 276 2.0 2.0 0.00 0.00 0.00 35 1005.8
20260905091020 90 14 3.0 4.0 0.00 0.00 0.00 35 1005.4
20260905090519 89 48 4.0 4.0 0.00 0.00 0.00 35 1005.4
20260905090019 88 294 2.0 2.0 0.00 0.00 0.00 36 1005.4
20260905085519 87 309 3.0 4.0 0.00 0.00 0.00 37 1005.4
20260905085022 87 276 3.0 3.0 0.00 0.00 0.00 37 1005.8
20260905084519 88 24 0.0 0.0 0.00 0.00 0.00 36 1005.8
20260905084020 87 6 2.0 2.0 0.00 0.00 0.00 37 1005.8
20260905083520 85 283 2.0 2.0 0.00 0.00 0.00 37 1005.8
20260905083019 85 284 2.0 2.0 0.00 0.00 0.00 37 1005.8
20260905082519 86 282 2.0 2.0 0.00 0.00 0.00 37 1005.8
20260905082019 86 288 2.0 2.0 0.00 0.00 0.00 38 1005.8
20260905081519 85 288 2.0 2.0 0.00 0.00 0.00 39 1005.8
20260905081019 85 300 2.0 2.0 0.00 0.00 0.00 39 1005.8
20260905080519 84 278 2.0 2.0 0.00 0.00 0.00 39 1005.8
20260905080019 83 264 1.0 1.0 0.00 0.00 0.00 40 1005.8
20260905075519 83 276 0.0 0.0 0.00 0.00 0.00 40 1005.4
20260905075019 83 288 3.0 3.0 0.00 0.00 0.00 41 1005.8
20260905074519 82 288 2.0 2.0 0.00 0.00 0.00 42 1005.4
20260905074020 82 294 3.0 3.0 0.00 0.00 0.00 42 1005.8
20260905073519 81 12 5.0 5.0 0.00 0.00 0.00 42 1005.4
20260905073019 80 298 0.0 0.0 0.00 0.00 0.00 43 1005.8
20260905072521 80 312 1.0 1.0 0.00 0.00 0.00 44 1005.8
20260905072019 79 288 2.0 2.0 0.00 0.00 0.00 45 1005.8
20260905071522 78 271 2.0 2.0 0.00 0.00 0.00 45 1005.4
20260905071020 78 276 3.0 3.0 0.00 0.00 0.00 45 1005.4
20260905070519 78 283 3.0 3.0 0.00 0.00 0.00 47 1005.8
20260905070019 77 278 0.0 0.0 0.00 0.00 0.00 49 1005.4
20260905065520 77 298 1.0 1.0 0.00 0.00 0.00 50 1005.8
20260905065021 76 288 0.0 0.0 0.00 0.00 0.00 51 1005.8
20260905064519 76 228 0.0 0.0 0.00 0.00 0.00 51 1005.4
20260905064019 75 284 2.0 2.0 0.00 0.00 0.00 51 1005.4
20260905063519 74 276 2.0 2.0 0.00 0.00 0.00 52 1005.4
20260905063019 74 282 2.0 2.0 0.00 0.00 0.00 54 1005.4
20260905062519 73 271 2.0 2.0 0.00 0.00 0.00 54 1005.8
20260905062019 73 288 2.0 2.0 0.00 0.00 0.00 56 1005.4
20260905061519 72 288 1.0 1.0 0.00 0.00 0.00 56 1005.4
20260905061020 71 264 0.0 0.0 0.00 0.00 0.00 58 1005.4
20260905060519 71 258 0.0 0.0 0.00 0.00 0.00 59 1005.4
20260905060020 70 252 4.0 4.0 0.00 0.00 0.00 59 1005.4
20260905055519 69 264 3.0 3.0 0.00 0.00 0.00 61 1005.4
20260905055019 69 252 2.0 2.0 0.00 0.00 0.00 61 1005.4
20260905054520 68 276 2.0 2.0 0.00 0.00 0.00 63 1005.4
20260905054019 67 283 2.0 2.0 0.00 0.00 0.00 64 1005.4
20260905053519 67 246 0.0 0.0 0.00 0.00 0.00 65 1005.8
20260905053019 66 264 0.0 0.0 0.00 0.00 0.00 66 1005.4
20260905052519 66 264 1.0 1.0 0.00 0.00 0.00 66 1005.4
20260905052020 65 258 0.0 0.0 0.00 0.00 0.00 68 1005.4
20260905051519 65 258 2.0 2.0 0.00 0.00 0.00 69 1005.4
20260905051019 64 258 2.0 2.0 0.00 0.00 0.00 70 1005.4
20260905050519 64 270 1.0 1.0 0.00 0.00 0.00 71 1005.1
20260905050018 63 270 0.0 0.0 0.00 0.00 0.00 71 1005.4
20260905045520 63 270 2.0 2.0 0.00 0.00 0.00 72 1005.1
20260905045019 62 270 0.0 0.0 0.00 0.00 0.00 72 1005.1
20260905044519 62 270 0.0 0.0 0.00 0.00 0.00 74 1005.1
20260905044019 61 270 0.0 0.0 0.00 0.00 0.00 74 1005.4
20260905043519 61 270 0.0 0.0 0.00 0.00 0.00 75 1005.1
20260905043020 61 270 0.0 0.0 0.00 0.00 0.00 75 1005.1
20260905042520 61 270 0.0 0.0 0.00 0.00 0.00 75 1005.1
20260905042019 61 270 0.0 0.0 0.00 0.00 0.00 75 1005.4
20260905041519 61 270 0.0 0.0 0.00 0.00 0.00 76 1005.4
20260905041019 60 270 0.0 0.0 0.00 0.00 0.00 76 1005.4
20260905040519 61 270 0.0 0.0 0.00 0.00 0.00 76 1005.1
20260905040019 61 270 0.0 0.0 0.00 0.00 0.00 76 1005.1
20260905035519 61 270 0.0 0.0 0.00 0.00 0.00 76 1005.1
20260905035019 61 270 0.0 0.0 0.00 0.00 0.00 76 1005.1
20260905034519 61 270 0.0 0.0 0.00 0.00 0.00 77 1005.4
20260905034019 61 270 0.0 0.0 0.00 0.00 0.00 77 1005.4
20260905033519 62 270 0.0 0.0 0.00 0.00 0.00 76 1005.1
20260905033019 62 270 2.0 2.0 0.00 0.00 0.00 76 1005.4
20260905032520 62 270 0.0 0.0 0.00 0.00 0.00 76 1005.1
20260905032019 62 270 0.0 0.0 0.00 0.00 0.00 77 1005.1
20260905031519 62 270 0.0 0.0 0.00 0.00 0.00 77 1005.1
20260905031019 62 270 0.0 0.0 0.00 0.00 0.00 77 1005.1
20260905030519 62 270 0.0 0.0 0.00 0.00 0.00 77 1005.4
20260905030019 62 270 0.0 0.0 0.00 0.00 0.00 76 1005.1
20260905025519 63 270 0.0 0.0 0.00 0.00 0.00 75 1005.1
20260905025019 63 270 0.0 0.0 0.00 0.00 0.00 75 1005.1
20260905024520 64 270 0.0 0.0 0.00 0.00 0.00 73 1005.1
20260905024019 64 270 0.0 0.0 0.00 0.00 0.00 72 1005.1
20260905023520 65 270 0.0 0.0 0.00 0.00 0.00 71 1005.1
20260905023019 65 270 0.0 0.0 0.00 0.00 0.00 70 1005.4
20260905022520 65 270 0.0 0.0 0.00 0.00 0.00 69 1005.1
20260905022019 65 270 0.0 0.0 0.00 0.00 0.00 68 1005.1
20260905021520 66 270 0.0 0.0 0.00 0.00 0.00 68 1005.4
20260905021019 66 270 0.0 0.0 0.00 0.00 0.00 68 1005.1
20260905020519 66 276 0.0 0.0 0.00 0.00 0.00 68 1005.4
20260905020019 66 276 0.0 0.0 0.00 0.00 0.00 67 1005.1
20260905015520 65 293 0.0 0.0 0.00 0.00 0.00 68 1005.1
20260905015019 66 293 0.0 0.0 0.00 0.00 0.00 68 1005.1